This is the latest recevied weather packets stored in our database for station/object CRYC. If no packets are shown the sender has not sent any weather packets the latest 10 day(s).
| Time | Temp. | Humidity | Pressure | Rain* | Wind** | Luminosity | Snow |
|---|---|---|---|---|---|---|---|
| 1777651427 | 18.89° C | - | - | 0 mm | 1.79 m/s, 266° | - | - |
| 1777650820 | 18.89° C | - | - | 0 mm | 2.24 m/s, 273° | - | - |
| 1777650217 | 17.78° C | - | - | 0 mm | 1.79 m/s, 260° | - | - |
| 1777649610 | 18.33° C | - | - | 0 mm | 0.45 m/s, 228° | - | - |
| 1777649006 | 17.78° C | - | - | 0 mm | 1.34 m/s, 270° | - | - |
| 1777648403 | 17.22° C | - | - | 0 mm | 3.13 m/s, 277° | - | - |
| 1777647799 | 16.67° C | - | - | 0 mm | 1.34 m/s, 256° | - | - |
| 1777647195 | 15.56° C | - | - | 0 mm | 0.89 m/s, 298° | - | - |
| 1777646590 | 14.44° C | - | - | 0 mm | 2.24 m/s, 338° | - | - |
| 1777645988 | 13.89° C | - | - | 0 mm | 1.34 m/s, 13° | - | - |
| 1777645377 | 13.89° C | - | - | 0 mm | 1.34 m/s, 34° | - | - |
| 1777644773 | 14.44° C | - | - | 0 mm | 0 m/s | - | - |
| 1777643566 | 13.89° C | - | - | 0 mm | 0.89 m/s, 28° | - | - |
| 1777641751 | 14.44° C | - | - | 0 mm | 0.89 m/s, 21° | - | - |
| 1777641146 | 12.78° C | - | - | 0 mm | 0.45 m/s, 11° | - | - |
| 1777640540 | 12.78° C | - | - | 0 mm | 2.24 m/s, 356° | - | - |
| 1777639921 | 12.78° C | - | - | 0 mm | 0.45 m/s, 353° | - | - |
| 1777638713 | 13.33° C | - | - | 0 mm | 0 m/s | - | - |
| 1777637503 | 13.33° C | - | - | 0 mm | 0 m/s | - | - |
| 1777636897 | 12.22° C | - | - | 0 mm | 0.89 m/s, 11° | - | - |
| 1777636286 | 12.78° C | - | - | 0 mm | 0 m/s | - | - |
| 1777635684 | 13.33° C | - | - | 0 mm | 0.45 m/s, 321° | - | - |
| 1777635080 | 12.78° C | - | - | 0 mm | 0.45 m/s, 114° | - | - |
| 1777634476 | 12.78° C | - | - | 0 mm | 0 m/s | - | - |
| 1777633870 | 15° C | - | - | 0 mm | 0 m/s | - | - |
* Rain latest hour (hover to see other rain measurements)
** Current wind speed in m/s (hover to see current wind gust speed)